Regional Weather Roundup
Issued by NWS Cleveland, OH

Home | Current Version | Previous Version | Graphics & Text | Print | Product List | Glossary On
Versions: 1 2 3 4 5 6 7 8 9 10 11 12 13 14 15 16 17 18 19 20 21 22 23 24 25 26 27 28 29 30 31 32 33 34 35 36 37 38 39 40 41 42 43 44 45 46 47 48 49 50
000
ASUS41 KCLE 161000
RWRCLE
OHIO REGIONAL WEATHER ROUNDUP
NATIONAL WEATHER SERVICE WILMINGTON, OH
600 AM EDT WED APR 16 2014

NOTE: "FAIR" INDICATES FEW OR NO CLOUDS BELOW 12,000 FEET WITH NO
SIGNIFICANT WEATHER AND/OR OBSTRUCTIONS TO VISIBILITY.

OHZ001>008-015>018-024>027-034-035-043-044-161100-
   NORTHWEST OHIO

CITY           SKY/WX    TMP DP  RH WIND       PRES   REMARKS
DEFIANCE       CLEAR     21  16  81 CALM      30.36R
FINDLAY        CLEAR     24  18  77 CALM      30.34R
TOLEDO EXPRESS FAIR      20  14  77 CALM      30.35R
TOLEDO METCALF CLEAR     24  14  65 CALM      30.37R
LIMA           CLEAR     24  19  81 S5        30.34R WCI  18
$$

OHZ009>014-019>023-028>033-038-089-161100-
   NORTHEAST OHIO

CITY           SKY/WX    TMP DP  RH WIND       PRES   REMARKS
CLE-HOPKINS    PTCLDY    27  15  61 S3        30.37R
CLE-LAKEFRONT  CLEAR     30  14  51 N7        30.35R WCI  23
CUY CO. ARPT   NOT AVBL
LORAIN-ELYRIA  CLEAR     26  18  71 SE3       30.35R
ASHTABULA      CLEAR     20  16  84 CALM      30.34R
AKRON-CANTON   CLEAR     21  17  84 N3        30.33R
WOOSTER        NOT AVBL
MANSFIELD      CLEAR     22  17  81 SW3       30.33R
YOUNGSTOWN     PTCLDY    20  16  84 NE3       30.32R
$$

OHZ042-051>053-060>062-070>072-077>081-161100-
  SOUTHWEST OHIO

CITY           SKY/WX    TMP DP  RH WIND       PRES   REMARKS
CINC-COVINGTON CLEAR     28  17  63 SE3       30.35R
CINC-LUNKEN    CLEAR     24  24 100 CALM      30.39R
HAMILTON       CLEAR     25  20  81 CALM      30.38R
DAYTON         NOT AVBL
WRIGHT-PAT AFB CLEAR     24  19  79 CALM      30.36R
DAYTON GENERAL CLEAR     26  18  71 CALM      30.34R
WILMINGTON     CLEAR     25  15  66 CALM      30.34R
$$

OHZ036-037-039>041-045>050-054>059-063>069-073>076-082>088-161100-
  CENTRAL AND SOUTHEAST OHIO

CITY           SKY/WX    TMP DP  RH WIND       PRES   REMARKS
COLUMBUS       CLEAR     28  17  63 CALM      30.35R
OSU AIRPORT    CLEAR     25  19  78 CALM      30.36R
BOLTON FIELD   NOT AVBL
RICKENBACK AFB NOT AVBL
NEWARK         CLEAR     23  18  81 CALM      30.35R
MARION         CLEAR     23  17  78 CALM      30.35R
LANCASTER      CLEAR     23  18  81 CALM      30.35R
ZANESVILLE     CLEAR     24  19  81 CALM      30.35R
NEW PHILLY     CLEAR     23  19  85 CALM      30.36R
$$



USA.gov is the U.S. government's official web portal to all federal, state and local government web resources and services.